Weather History for LKTB - December, 2012

Change the Weather History Date:

Thursday, December 6, 2012

  Actual Average Record
Temperature  
Mean Temperature 26 °F -  
Max Temperature 31 °F 34 °F - ()
Min Temperature 19 °F 26 °F - ()
Degree Days  
Heating Degree Days 39    
Moisture  
Dew Point 26 °F    
Average Humidity 91    
Maximum Humidity 100    
Minimum Humidity 61    
Precipitation  
Precipitation 0.02 in 0.03 in - ()
Sea Level Pressure  
Sea Level Pressure 29.78 in    
Wind  
Wind Speed 4 mph ()    
Max Wind Speed 15 mph    
Max Gust Speed -    
Visibility 2.8 miles    
Events Fog , Snow    
T = Trace of Precipitation, MM = Missing Value Source: Averaged Metar Reports

Daily Weather History Graph

Daily Weather History Graph

Search for Another Location

Airport or City:

Trip Planner

Search our weather history database for the weather conditions in past years. The results will help you decide how hot, cold, wet, or windy it might be!

Date:

Astronomy

Dec. 06, 2012 Rise Set
Actual Time 7:32 AM CET 3:55 PM CET
Civil Twilight 6:55 AM CET 4:32 PM CET
Nautical Twilight 6:15 AM CET 5:13 PM CET
Astronomical Twilight 5:37 AM CET 5:51 PM CET
Moon No Moon Rise 11:47 AM CET (12/6)
Length of Visible Light 9h 36m
Length of Day
8h 22m
Waning Gibbous, 52% of the Moon is Illuminated
Dec 6
Waning Gibbous
Dec 6
Last Quarter
Dec 13
New
Dec 20
First Quarter
Dec 28
Full

Hourly Weather History & Observations

Time (CET) Temp. Windchill Dew Point Humidity Pressure Visibility Wind Dir Wind Speed Gust Speed Precip Events Conditions
12:00 AM 28.4 °F 24.6 °F 24.8 °F 86% 29.71 in 5.6 mi North 3.5 mph - N/A   Mostly Cloudy
12:30 AM 26.6 °F - 24.8 °F 93% 29.71 in 5.6 mi Variable 2.3 mph - N/A   Mostly Cloudy
1:00 AM 28 °F - 25 °F 84% 29.76 in 4 mi SSE 2.2 mph - -   Mist
1:00 AM 28.4 °F - 26.6 °F 93% 29.71 in 3.7 mi Variable 1.2 mph - N/A   Mostly Cloudy
1:30 AM 30.2 °F - 28.4 °F 93% 29.71 in 3.1 mi Calm Calm - N/A   Mostly Cloudy
2:00 AM 30.2 °F - 26.6 °F 86% 29.71 in 2.8 mi Variable 1.2 mph - N/A   Overcast
2:30 AM 30.2 °F 26.7 °F 28.4 °F 93% 29.71 in - SE 3.5 mph - N/A   Overcast
3:00 AM 30.2 °F - 28.4 °F 93% 29.71 in - Variable 2.3 mph - N/A   Overcast
3:30 AM 30.2 °F - 28.4 °F 93% 29.71 in - Variable 1.2 mph - N/A   Overcast
4:00 AM 30.2 °F - 28.4 °F 93% 29.71 in 0.7 mi Variable 2.3 mph - N/A   Overcast
4:30 AM 30.2 °F - 28.4 °F 93% 29.71 in 0.5 mi Variable 1.2 mph - N/A Fog Light Freezing Fog
4:49 AM 28.4 °F - 28.4 °F 100% 29.71 in 0.9 mi Variable 1.2 mph - N/A   Overcast
5:00 AM 28.4 °F - 28.4 °F 100% 29.71 in 0.7 mi Variable 1.2 mph - N/A   Overcast
5:12 AM 28.4 °F 24.6 °F 28.4 °F 100% 29.71 in 0.1 mi South 3.5 mph - N/A Fog , Snow Light Snow
5:30 AM 28.4 °F 24.6 °F 28.4 °F 100% 29.71 in 0.1 mi SSW 3.5 mph - N/A Fog , Snow Light Snow
6:00 AM 28.4 °F 24.6 °F 28.4 °F 100% 29.71 in 0.1 mi South 3.5 mph - N/A Fog , Snow Light Snow
6:30 AM 28.4 °F 23.3 °F 28.4 °F 100% 29.71 in 0.1 mi SE 4.6 mph - N/A Fog Light Freezing Fog
7:00 AM 29 °F - 27 °F 90% 29.78 in 0 mi Calm Calm - - Fog Heavy Fog
7:00 AM 28.4 °F - 28.4 °F 100% 29.71 in 0.1 mi Variable 2.3 mph - N/A Fog Light Freezing Fog
7:30 AM 28.4 °F 24.6 °F 28.4 °F 100% 29.71 in 0.1 mi SE 3.5 mph - N/A Fog Light Freezing Fog
8:00 AM 28.4 °F 24.6 °F 28.4 °F 100% 29.71 in 0.1 mi SE 3.5 mph - N/A Fog Light Freezing Fog
8:30 AM 28.4 °F 24.6 °F 28.4 °F 100% 29.71 in 0.2 mi SE 3.5 mph - N/A Fog Light Freezing Fog
9:00 AM 28.4 °F 24.6 °F 28.4 °F 100% 29.74 in 0.2 mi South 3.5 mph - N/A Fog Light Freezing Fog
9:07 AM 28.4 °F - 28.4 °F 100% 29.74 in 0.4 mi Variable 2.3 mph - N/A Fog Light Freezing Fog
9:30 AM 28.4 °F 23.3 °F 28.4 °F 100% 29.74 in 0.4 mi South 4.6 mph - N/A Fog Light Freezing Fog
10:00 AM 28.4 °F 24.6 °F 28.4 °F 100% 29.74 in 0.5 mi SSW 3.5 mph - N/A Fog Light Freezing Fog
10:08 AM 30.2 °F 25.4 °F 28.4 °F 93% 29.74 in 0.4 mi South 4.6 mph - N/A Fog Light Freezing Fog
10:10 AM 30.2 °F 25.4 °F 28.4 °F 93% 29.74 in 0.2 mi South 4.6 mph - N/A Fog Light Freezing Fog
10:30 AM 30.2 °F 25.4 °F 28.4 °F 93% 29.74 in 0.2 mi SSE 4.6 mph - N/A Fog Light Freezing Fog
10:45 AM 28.4 °F 23.3 °F 28.4 °F 100% 29.74 in 0.2 mi SSE 4.6 mph - N/A Fog , Snow Light Snow
11:00 AM 28.4 °F 22.2 °F 28.4 °F 100% 29.74 in 0.1 mi SE 5.8 mph - N/A Fog , Snow Light Snow
11:08 AM 28.4 °F 23.3 °F 28.4 °F 100% 29.74 in 0.2 mi SSE 4.6 mph - N/A Fog , Snow Light Snow
11:15 AM 28.4 °F 23.3 °F 28.4 °F 100% 29.74 in 0.3 mi SSE 4.6 mph - N/A Fog , Snow Light Snow
11:30 AM 28.4 °F 23.3 °F 28.4 °F 100% 29.74 in 0.4 mi SSE 4.6 mph - N/A Fog , Snow Light Snow
11:39 AM 28.4 °F 24.6 °F 28.4 °F 100% 29.74 in 0.6 mi SSE 3.5 mph - N/A Fog , Snow Light Snow
11:50 AM 30.2 °F 25.4 °F 28.4 °F 93% 29.74 in 0.6 mi SE 4.6 mph - N/A Fog , Snow Light Snow
12:00 PM 30.2 °F 25.4 °F 28.4 °F 93% 29.74 in 1.0 mi SE 4.6 mph - N/A Snow Light Snow
12:30 PM 30.2 °F 26.7 °F 28.4 °F 93% 29.74 in 0.7 mi South 3.5 mph - N/A Snow Light Snow
12:34 PM 30.2 °F 26.7 °F 28.4 °F 93% 29.74 in 0.7 mi South 3.5 mph - N/A Snow Light Snow
12:46 PM 30.2 °F 26.7 °F 28.4 °F 93% 29.74 in - South 3.5 mph - N/A Snow Snow
1:00 PM 30 °F - 28 °F 90% 29.81 in 0 mi SW 6.7 mph - - Snow Snow
1:00 PM 30.2 °F 25.4 °F 28.4 °F 93% 29.74 in 0.5 mi SW 4.6 mph - N/A Snow Snow
1:16 PM 30.2 °F 22.6 °F 28.4 °F 93% 29.74 in 0.7 mi SW 8.1 mph - N/A Snow Snow
1:30 PM 30.2 °F 24.3 °F 28.4 °F 93% 29.74 in 1.6 mi SW 5.8 mph - N/A Snow Light Snow
1:38 PM 30.2 °F 26.7 °F 28.4 °F 93% 29.74 in - WSW 3.5 mph - N/A Snow Light Snow
2:00 PM 30.2 °F 25.4 °F 30.2 °F 100% 29.77 in 2.2 mi SW 4.6 mph - N/A   Mostly Cloudy
2:30 PM 28.4 °F 22.2 °F 28.4 °F 100% 29.77 in 3.1 mi SSW 5.8 mph - N/A   Scattered Clouds
3:00 PM 28.4 °F 21.2 °F 26.6 °F 93% 29.77 in 2.5 mi SSW 6.9 mph - N/A   Scattered Clouds
3:07 PM 30.2 °F 24.3 °F 30.2 °F 100% 29.77 in 4.3 mi WSW 5.8 mph - N/A   Scattered Clouds
3:30 PM 32.0 °F 21.6 °F 30.2 °F 93% 29.80 in 6.2 mi NW 15.0 mph - N/A   Mostly Cloudy
3:41 PM 32.0 °F 23.0 °F 28.4 °F 87% 29.80 in 6.2 mi NW 11.5 mph - N/A   Scattered Clouds
4:00 PM 30.2 °F 21.3 °F 26.6 °F 86% 29.83 in 6.2 mi WNW 10.4 mph - N/A   Scattered Clouds
4:30 PM 28.4 °F 19.1 °F 23.0 °F 80% 29.83 in 6.2 mi West 10.4 mph - N/A   Scattered Clouds
5:00 PM 28.4 °F 18.5 °F 21.2 °F 74% 29.86 in 6.2 mi West 11.5 mph - N/A   Mostly Cloudy
5:30 PM 28.4 °F 18.5 °F 19.4 °F 69% 29.86 in 6.2 mi West 11.5 mph - N/A   Scattered Clouds
6:00 PM 26.6 °F 15.7 °F 19.4 °F 74% 29.89 in 6.2 mi West 12.7 mph - N/A   Partly Cloudy
6:30 PM 26.6 °F 16.8 °F 19.4 °F 74% 29.89 in 6.2 mi West 10.4 mph - N/A   Partly Cloudy
7:00 PM 24 °F - 16 °F 61% 29.96 in 12 mi West 8.9 mph - -   Partly Cloudy
7:00 PM 23.0 °F 13.1 °F 17.6 °F 80% 29.89 in 6.2 mi West 9.2 mph - N/A   Partly Cloudy
7:30 PM 24.8 °F 16.1 °F 17.6 °F 74% 29.89 in 6.2 mi West 8.1 mph - N/A   Partly Cloudy
8:00 PM 24.8 °F 15.3 °F 17.6 °F 74% 29.89 in 6.2 mi WSW 9.2 mph - N/A   Scattered Clouds
8:30 PM 24.8 °F 13.4 °F 19.4 °F 80% 29.92 in 6.2 mi West 12.7 mph - N/A   Partly Cloudy
9:00 PM 23.0 °F 12.4 °F 17.6 °F 80% 29.92 in 6.2 mi West 10.4 mph - N/A   Mostly Cloudy
9:30 PM 24.8 °F 14.6 °F 19.4 °F 80% 29.92 in 6.2 mi West 10.4 mph - N/A   Scattered Clouds
10:00 PM 23.0 °F 17.0 °F 17.6 °F 80% 29.95 in 6.2 mi SW 4.6 mph - N/A   Partly Cloudy
10:30 PM 21.2 °F - 17.6 °F 86% 29.95 in 6.2 mi South 2.3 mph - N/A   Partly Cloudy
11:00 PM 21.2 °F 16.4 °F 17.6 °F 86% 29.95 in 6.2 mi SSE 3.5 mph - N/A   Partly Cloudy
11:30 PM 19.4 °F 14.3 °F 15.8 °F 86% 29.95 in 6.2 mi SW 3.5 mph - N/A   Partly Cloudy